Home > Weather > Lakewood > Past weeks

Flag for USA Weather for the Past 2 Weeks in Lakewood, New Jersey, USA

Now
48 °F

Fog.


Feels Like: 44 °F
Forecast: 45 / 54 °F
Wind: 8 mph from Northeast

Location: Lakehurst Naval Air Station

Current Time: May 5, 2016 at 10:36:45 AM

Latest Report: May 5, 2016 at 10:00 AM


Visibility: 5 mi

Pressure: 29.68 "Hg

Humidity: 89%

Dew Point: 45 °F

Location of LakewoodLocation

Historic Weather in Lakewood — Graph

°F

Lakewood Temperature Yesterday

Maximum temperature yesterday: 50 °F (at 12:06 PM)
Minimum temperature yesterday: 48 °F (at 6:06 AM)
Average temperature yesterday: 49 °F

High & Low Weather Summary for the Past Weeks

 TemperatureHumidityPressure
High84 °F (Apr 26, 2:00 PM)100% (Apr 23, 5:00 AM)30.26 "Hg (Apr 23, 5:00 AM)
Low30 °F (Apr 21, 5:00 AM)17% (Apr 21, 2:00 PM)29.57 "Hg (Apr 26, 3:00 PM)
Average54 °F74%29.95 "Hg
* Reported Apr 20 9:00 AM — May 5 9:06 AM, Lakewood, Weather by CustomWeather, © 2016

Note: Actual official high and low records may vary slightly from our data, if they occured in-between our weather recording intervals... More about our weather records

Advertising

Lakewood Weather History for the Previous 24 Hours

Scroll right to see more
 ConditionsComfort  
Time TempWeatherWind HumidityBarometerVisibility
9:06 AM
Thu, May 5
48 °FLow clouds.6 mph89%29.68 "Hg10 mi
9:00 AM46 °FLow clouds.6 mph93%29.68 "Hg9 mi
8:00 AM47 °FOvercast.9 mph90%29.67 "Hg10 mi
7:00 AM47 °FFog.7 mph93%29.67 "Hg2 mi
6:00 AM47 °FFog.5 mph93%29.65 "Hg4 mi
5:00 AM46 °FFog.5 mph93%29.66 "Hg2 mi
4:00 AM47 °FFog.3 mph97%29.68 "Hg2 mi
3:06 AM47 °FFog.3 mph97%29.69 "Hg1 mi
3:00 AM46 °FFog.No wind100%29.69 "Hg1 mi
2:00 AM47 °FFog.3 mph93%29.71 "Hg2 mi
1:00 AM48 °FOvercast.8 mph86%29.71 "Hg9 mi
12:00 AM49 °FOvercast.6 mph84%29.71 "Hg10 mi
11:00 PM
Wed, May 4
49 °FOvercast.9 mph86%29.72 "Hg10 mi
10:00 PM50 °FMostly cloudy.7 mph86%29.71 "Hg10 mi
9:00 PM50 °FOvercast.12 mph86%29.71 "Hg10 mi
8:00 PM50 °FOvercast.12 mph86%29.71 "Hg10 mi
7:00 PM50 °FMostly cloudy.13 mph86%29.70 "Hg10 mi
6:00 PM49 °FLow clouds.12 mph93%29.70 "Hg10 mi
5:00 PM49 °FOvercast.15 mph90%29.70 "Hg10 mi
4:00 PM49 °FLow clouds.10 mph90%29.69 "Hg10 mi
3:00 PM48 °FLight rain. Fog.5 mph93%29.71 "Hg4 mi
2:00 PM48 °FLight rain. Fog.10 mph93%29.70 "Hg3 mi
1:00 PM49 °FFog.15 mph93%29.73 "Hg4 mi
12:06 PM50 °FFog.10 mph93%29.75 "Hg2 mi
12:00 PM48 °FFog.12 mph94%29.75 "Hg2 mi
11:00 AM49 °FFog.15 mph93%29.75 "Hg4 mi
10:00 AM49 °FFog.10 mph93%29.77 "Hg2 mi
Weather by CustomWeather, © 2016

See weather overviewHow to use our weather pages